Date String (YYYY-MM-DD hh:mm:ss) UTC,Instrument flags,Ambient pressure (hPa),Sample flow (lpm),Bypass flow (lpm),Sample temperature (°C),Ambient temperature (°C),ASC tube jacket temperature (°C),LED temperature (°C),Box temperature (°C),Sample RH (%),Span deviation,Mass concentration (μg/m³),Mass concentration (μg/m³),Mass concentration (μg/m³)
DateTimeUTC,F1_M11,P_M11,Q1_M11,Q2_M11,T1_M11,T2_M11,T3_M11,T4_M11,T5_M11,U1_M11,ZSPAN_M11,X0_M11,X2_M11,X1_M11
2022-10-26 21:00:00,,0818.0,5.00,0.00,26.8,25.5,00.0,35.5,28.7,14.0,0000.0,0014.04,0004.96,0004.31
2022-10-26 21:01:00,,0818.0,5.00,0.00,26.8,25.5,00.0,35.5,28.7,13.9,0000.0,0013.69,0004.94,0004.30
2022-10-26 21:02:00,,0818.0,5.00,0.00,26.8,25.5,00.0,35.5,28.7,13.8,0000.0,0012.53,0004.93,0004.29
2022-10-26 21:03:00,,0818.1,5.01,0.00,26.8,25.4,00.0,35.5,28.7,13.8,0000.0,0012.50,0004.94,0004.30
2022-10-26 21:04:00,,0818.2,5.00,0.00,26.8,25.5,00.0,35.5,28.7,13.7,0000.0,0012.58,0005.00,0004.33
2022-10-26 21:05:00,,0818.2,5.01,0.00,26.8,25.5,00.0,35.5,28.7,13.7,0000.0,0012.30,0005.00,0004.33
2022-10-26 21:06:00,,0818.2,5.00,0.00,26.8,25.5,00.0,35.5,28.7,13.7,0000.0,0012.36,0004.99,0004.33
2022-10-26 21:07:00,,0818.3,5.00,0.00,26.8,25.5,00.0,35.5,28.7,13.7,0000.0,0012.65,0005.01,0004.33
2022-10-26 21:08:00,,0818.2,5.00,0.00,26.8,25.6,00.0,35.5,28.7,13.8,0000.0,0012.53,0005.02,0004.32
2022-10-26 21:09:00,,0818.2,5.00,0.00,26.8,25.6,00.0,35.6,28.8,13.8,0000.0,0012.55,0005.00,0004.30
2022-10-26 21:10:00,,0818.2,5.00,0.00,26.8,25.6,00.0,35.6,28.8,13.7,0000.0,0011.95,0004.97,0004.28
2022-10-26 21:11:00,,0818.2,5.00,0.00,26.9,25.6,00.0,35.6,28.8,13.8,0000.0,0010.26,0004.99,0004.26
2022-10-26 21:12:00,,0818.2,5.00,0.00,26.9,25.7,00.0,35.6,28.8,13.8,0000.0,0010.18,0004.94,0004.23
2022-10-26 21:13:00,,0818.2,5.00,0.00,26.9,25.6,00.0,35.6,28.8,13.6,0000.0,0010.49,0004.90,0004.20
2022-10-26 21:14:00,,0818.3,5.00,0.00,26.9,25.6,00.0,35.6,28.8,13.6,0000.0,0010.67,0004.86,0004.18
2022-10-26 21:15:00,,0818.2,4.99,0.00,26.9,25.5,00.0,35.6,28.8,13.5,0000.0,0010.93,0004.80,0004.15
2022-10-26 21:16:00,,0818.2,4.99,0.00,26.9,25.5,00.0,35.6,28.8,13.5,0000.0,0011.69,0004.81,0004.13
2022-10-26 21:17:00,,0818.2,5.00,0.00,26.9,25.6,00.0,35.6,28.8,13.5,0000.0,0012.69,0004.79,0004.10
2022-10-26 21:18:00,,0818.2,4.99,0.00,26.9,25.6,00.0,35.6,28.9,13.5,0000.0,0012.77,0004.73,0004.07
2022-10-26 21:19:00,,0818.2,4.99,0.00,26.9,25.7,00.0,35.6,28.9,13.5,0000.0,0013.09,0004.71,0004.06
2022-10-26 21:20:00,,0818.2,5.00,0.00,26.9,25.6,00.0,35.6,28.9,13.5,0000.0,0012.92,0004.67,0004.05
2022-10-26 21:21:00,,0818.2,5.00,0.00,26.9,25.5,00.0,35.7,28.9,13.5,0000.0,0012.62,0004.65,0004.05
2022-10-26 21:22:00,,0818.2,5.02,0.00,26.9,25.6,00.0,35.7,28.8,13.5,0000.0,0012.86,0004.59,0004.03
2022-10-26 21:23:00,,0818.2,5.00,0.00,26.9,25.6,00.0,35.7,28.8,13.5,0000.0,0013.07,0004.61,0004.02
2022-10-26 21:24:00,,0818.2,4.98,0.00,26.9,25.5,00.0,35.7,28.8,13.2,0000.0,0013.39,0004.62,0004.02
2022-10-26 21:25:00,,0818.2,5.00,0.00,26.9,25.5,00.0,35.7,28.8,13.4,0000.0,0013.48,0004.59,0003.99
2022-10-26 21:26:00,,0818.2,4.99,0.00,26.9,25.5,00.0,35.7,28.8,13.5,0000.0,0013.68,0004.60,0003.99
2022-10-26 21:27:00,,0818.0,4.99,0.00,26.9,25.5,00.0,35.7,28.8,13.4,0000.0,0013.75,0004.58,0003.99
2022-10-26 21:28:00,,0818.0,5.00,0.00,26.9,25.6,00.0,35.7,28.9,13.1,0000.0,0012.51,0004.54,0003.97
2022-10-26 21:29:00,,0818.1,5.00,0.00,27.0,25.6,00.0,35.7,28.9,13.0,0000.0,0011.77,0004.46,0003.91
2022-10-26 21:30:00,,0818.1,5.01,0.00,27.0,25.7,00.0,35.7,28.9,13.0,0000.0,0011.12,0004.39,0003.83
2022-10-26 21:31:00,,0818.1,5.01,0.00,27.0,25.7,00.0,35.7,28.9,13.1,0000.0,0011.73,0004.35,0003.78
2022-10-26 21:32:00,,0818.2,5.00,0.00,27.0,25.7,00.0,35.7,29.0,13.3,0000.0,0012.68,0004.32,0003.76
2022-10-26 21:33:00,,0818.1,5.00,0.00,27.0,25.7,00.0,35.7,28.9,13.3,0000.0,0012.46,0004.37,0003.77
2022-10-26 21:34:00,,0818.0,5.00,0.00,27.0,25.6,00.0,35.7,28.9,13.4,0000.0,0012.80,0004.42,0003.80
2022-10-26 21:35:00,,0818.0,5.00,0.00,27.0,25.6,00.0,35.7,28.9,13.4,0000.0,0012.51,0004.45,0003.82
2022-10-26 21:36:00,,0818.1,5.00,0.00,27.0,25.6,00.0,35.7,28.9,13.4,0000.0,0012.18,0004.50,0003.86
2022-10-26 21:37:00,,0818.1,4.99,0.00,27.0,25.5,00.0,35.7,28.9,13.5,0000.0,0011.99,0004.53,0003.87
2022-10-26 21:38:00,,0818.1,5.01,0.00,27.0,25.4,00.0,35.7,28.8,13.5,0000.0,0011.86,0004.55,0003.88
2022-10-26 21:39:00,,0818.0,5.01,0.00,27.0,25.3,00.0,35.7,28.8,13.4,0000.0,0013.31,0004.62,0003.94
2022-10-26 21:40:00,,0818.0,4.99,0.00,27.0,25.3,00.0,35.8,28.8,13.5,0000.0,0014.37,0004.73,0004.01
2022-10-26 21:41:00,,0818.1,5.00,0.00,26.9,25.3,00.0,35.7,28.8,13.7,0000.0,0014.84,0004.85,0004.09
2022-10-26 21:42:00,,0818.1,4.99,0.00,26.9,25.4,00.0,35.7,28.8,13.6,0000.0,0014.28,0004.89,0004.13
2022-10-26 21:43:00,,0818.0,4.99,0.00,26.9,25.3,00.0,35.7,28.8,13.5,0000.0,0013.85,0004.92,0004.15
2022-10-26 21:44:00,,0818.0,5.00,0.00,26.9,25.3,00.0,35.7,28.8,13.6,0000.0,0014.33,0004.87,0004.13
2022-10-26 21:45:00,,0817.9,5.01,0.00,26.9,25.3,00.0,35.7,28.8,13.5,0000.0,0014.08,0004.81,0004.12
2022-10-26 21:46:00,,0818.0,4.99,0.00,26.9,25.3,00.0,35.7,28.8,13.4,0000.0,0014.24,0004.76,0004.09
2022-10-26 21:47:00,,0818.0,5.00,0.00,26.9,25.3,00.0,35.7,28.8,13.2,0000.0,0014.11,0004.69,0004.04
2022-10-26 21:48:00,,0817.9,5.00,0.00,26.9,25.3,00.0,35.7,28.8,13.3,0000.0,0013.55,0004.60,0003.99
2022-10-26 21:49:00,,0817.9,5.00,0.00,26.9,25.3,00.0,35.7,28.8,13.5,0000.0,0012.86,0004.53,0003.94
2022-10-26 21:50:00,,0817.9,5.00,0.00,26.9,25.4,00.0,35.7,28.8,13.5,0000.0,0011.31,0004.46,0003.91
2022-10-26 21:51:00,,0818.0,5.00,0.00,26.9,25.5,00.0,35.7,28.8,13.5,0000.0,0010.43,0004.41,0003.88
2022-10-26 21:52:00,,0818.0,5.01,0.00,26.9,25.6,00.0,35.7,28.9,13.5,0000.0,0009.90,0004.37,0003.87
2022-10-26 21:53:00,,0818.0,5.01,0.00,27.0,25.7,00.0,35.7,28.9,13.3,0000.0,0009.91,0004.38,0003.86
2022-10-26 21:54:00,,0818.0,5.00,0.00,27.0,25.6,00.0,35.8,28.9,13.4,0000.0,0009.72,0004.34,0003.83
2022-10-26 21:55:00,,0818.0,5.00,0.00,27.0,25.6,00.0,35.7,28.9,13.5,0000.0,0009.59,0004.33,0003.80
2022-10-26 21:56:00,,0818.0,5.00,0.00,27.0,25.7,00.0,35.8,28.9,13.5,0000.0,0009.99,0004.29,0003.75
2022-10-26 21:57:00,,0818.0,5.00,0.00,27.0,25.6,00.0,35.8,28.9,13.4,0000.0,0009.63,0004.26,0003.69
2022-10-26 21:58:00,,0817.9,5.00,0.00,27.0,25.7,00.0,35.8,28.9,13.5,0000.0,0009.59,0004.26,0003.68
2022-10-26 21:59:00,,0817.9,5.00,0.00,27.0,25.8,00.0,35.8,28.9,13.3,0000.0,0009.56,0004.22,0003.65
